Simultaneous Nadir Overpasses (SNOs) Predictions

Prediction of SNOs between GOES-15 and TERRA Satellite Orbit:

Table of predicted SNOs for the next 14.0 days since TLE Epoch: 10/5/2024
Index Date Time (GOES-15) GOES-15 Lat,Lon TERRA Lat,Lon Distance(km) Time Diff (sec)
1 10/06/2024 17:20:42 0.30, 61.34 0.91, 64.39 345.59 80
2 10/07/2024 05:40:30 -0.31, 61.21 0.03, 59.56 187.48 80
3 10/09/2024 05:25:14 -0.30, 61.22 -0.84, 63.89 302.69 80
4 10/09/2024 17:45:09 0.31, 61.35 -0.20, 59.05 262.23 80
5 10/11/2024 17:24:32 0.29, 61.37 0.74, 63.37 227.95 80
6 10/12/2024 05:44:17 -0.30, 61.26 0.26, 58.56 305.82 80
7 10/14/2024 05:28:57 -0.30, 61.28 -0.62, 62.91 185.16 80
8 10/14/2024 17:48:51 0.30, 61.40 -0.40, 58.07 378.42 80
9 10/16/2024 17:28:09 0.30, 61.42 0.51, 62.42 112.86 80
10 10/17/2024 05:47:55 -0.30, 61.32 0.45, 57.60 421.51 80
